カタログに戻る

COSMOS 651 DEB

LostLEO
NORAD 38843·DEBRIS·🇷🇺 Russia

打ち上げ May 15, 1974 から Baikonur Cosmodrome

Loading…

次のパス (今後24時間)

TLE

古いSource: Space-Track

元期: Aug 11, 2026, 05:54 UTC

1 38843U 74029D   26223.24616971 -.00000030  00000-0  44670-4 0  9998
2 38843  64.9710  44.6605 0033730 357.2472   2.8403 13.96399389340842

AllMySatでCOSMOS 651 DEBをリアルタイム追跡

Download on the App Store